Cosmos 1140 Rocket - Orbit

View from above orbital plane
View from above orbital plane
View from above satellite
View from above satellite

Ground track
Ground track

The orbit data is extracted from the following two-line orbital elements,

1 11574U 79089B   13144.49768775  .00000280  00000-0  97216-4 0  4610
2 11574 074.0718 078.4087 0016165 357.2638 054.2734 14.40003467763396
Epoch (UTC): 24 May 2013 11:56:40
Eccentricity: 0.0016165
inclination: 74.0718°
perigee height: 747 km
apogee height: 770 km
right ascension of ascending node: 78.4087°
argument of perigee: 357.2638°
revolutions per day: 14.40003467
mean anomaly at epoch: 54.2734°
orbit number at epoch: 76339

The dashed part of the orbit path shows where the satellite is in the earth's shadow,  

Developed and maintained by Chris Peat, Heavens-Above GmbH. Please read the updated FAQ before sending e-mail. Imprint. DLR